Weather History for Laramie, WY

Change the Weather History Date:

Friday, May 10, 2013

  Actual Average Record
Temperature  
Mean Temperature 46 °F 46 °F  
Max Temperature 60 °F 60 °F 77 °F (1961)
Min Temperature 31 °F 32 °F 16 °F (1979)
Degree Days  
Heating Degree Days 19 19  
Month to date heating degree days 260 208  
Since 1 July heating degree days 8200 8257  
Cooling Degree Days 0 0  
Month to date cooling degree days 0 0  
Year to date cooling degree days 0 0  
Moisture  
Dew Point 30 °F    
Average Humidity 57    
Maximum Humidity 89    
Minimum Humidity 25    
Precipitation  
Precipitation 0.00 in 0.05 in 0.39 in (1971)
Month to date precipitation 0.44 0.46  
Year to date precipitation 2.42 2.72  
Sea Level Pressure  
Sea Level Pressure 30.17 in    
Wind  
Wind Speed 8 mph (NE)    
Max Wind Speed 26 mph    
Max Gust Speed 36 mph    
Visibility 10 miles    
Events      
T = Trace of Precipitation, MM = Missing Value Source: NWS Daily Summary

Daily Weather History Graph

Daily Weather History Graph

Search for Another Location

Airport:

Trip Planner

Search our weather history database for the weather conditions in past years. The results will help you decide how hot, cold, wet, or windy it might be!

Date:

Astronomy

May. 10, 2013 Rise Set
Actual Time 5:48 AM MDT 8:09 PM MDT
Civil Twilight 5:17 AM MDT 8:40 PM MDT
Nautical Twilight 4:39 AM MDT 9:19 PM MDT
Astronomical Twilight 3:57 AM MDT 10:02 PM MDT
Moon 6:14 AM MDT (5/10) 9:01 PM MDT (5/10)
Length of Visible Light 15h 23m
Length of Day
14h 20m
New Moon, 1% of the Moon is Illuminated
May 10
New Moon
May 17
First Quarter
May 24
Full
May 31
Last Quarter
Jun 8
New

Hourly Weather History & Observations

Time (MDT) Temp. Windchill Dew Point Humidity Pressure Visibility Wind Dir Wind Speed Gust Speed Precip Events Conditions
12:53 AM 35.1 °F 30.1 °F - N/A% 30.13 in 10.0 mi ESE 5.8 mph - 0.00 in   Partly Cloudy
2:53 AM 35.1 °F 31.0 °F - N/A% 30.10 in - SW 4.6 mph - N/A   Clear
3:45 AM 35.6 °F 32.8 °F - N/A% 30.24 in 1.0 mi SE 3.5 mph - N/A   Mist
3:53 AM 32.0 °F 28.7 °F - N/A% 30.13 in - ESE 3.5 mph - N/A   Mostly Cloudy
4:06 AM 30.2 °F 24.3 °F - N/A% 30.24 in - SE 5.8 mph - N/A   Scattered Clouds
4:53 AM 32.0 °F 26.4 °F - N/A% 30.13 in - ESE 5.8 mph - N/A   Clear
7:53 AM 37.9 °F - - N/A% 30.18 in - Calm Calm - N/A   Clear
8:53 AM 43.0 °F 41.3 °F 39.9 °F 89% 30.17 in 10.0 mi NNW 3.5 mph - N/A   Scattered Clouds
9:53 AM 46.9 °F - 39.0 °F 74% 30.16 in 10.0 mi NNW 9.2 mph - N/A   Clear
11:53 AM 54.0 °F - 26.1 °F 34% 30.13 in 10.0 mi North 13.8 mph 23.0 mph N/A   Partly Cloudy
12:53 PM 55.9 °F - 28.9 °F 36% 30.13 in 10.0 mi North 13.8 mph 20.7 mph N/A   Partly Cloudy
1:53 PM 57.0 °F - 30.0 °F 36% 30.14 in 10.0 mi NW 15.0 mph - N/A   Overcast
2:53 PM 60.1 °F - 25.0 °F 26% 30.11 in 10.0 mi North 13.8 mph 19.6 mph N/A   Mostly Cloudy
3:53 PM 57.9 °F - 27.0 °F 31% 30.14 in 10.0 mi NNE 15.0 mph - N/A   Mostly Cloudy
4:53 PM 57.9 °F - 26.1 °F 30% 30.14 in 10.0 mi North 13.8 mph 19.6 mph N/A   Mostly Cloudy
5:53 PM 57.0 °F - 28.0 °F 33% 30.15 in 10.0 mi North 11.5 mph 20.7 mph N/A   Clear
6:50 PM 55.4 °F - 28.4 °F 36% 30.30 in 10.0 mi NE 10.4 mph - N/A   Overcast
6:53 PM 57.0 °F - 28.0 °F 33% 30.14 in 10.0 mi NNE 11.5 mph - N/A   Overcast
7:53 PM 50.0 °F - 30.0 °F 46% 30.19 in 10.0 mi NE 10.4 mph - N/A   Partly Cloudy
8:53 PM 45.0 °F 39.7 °F 32.0 °F 60% 30.21 in 10.0 mi ENE 10.4 mph - N/A   Clear
9:53 PM 42.1 °F 36.1 °F 32.0 °F 67% 30.24 in 10.0 mi ENE 10.4 mph - N/A   Clear
10:53 PM 42.1 °F 36.6 °F 33.1 °F 70% 30.24 in 10.0 mi ENE 9.2 mph - N/A   Clear
11:53 PM 39.9 °F - 33.1 °F 77% 30.25 in 10.0 mi Calm Calm - N/A   Clear